Weather in Sacramento

United States     38°33′42″N   121°26′59″W
temp.,
°C
wind,
m/s
gust,
m/s
humid.,
%
clouds,
%
prec.,
mm/h
press.,
hPa
HPBL,
m
7 may, fri
fri723:00+13ssw58730 0.0 1016245
02:00+11s48788 0.0 1015296
05:00+9sw34925 0.0 1016131
08:00+12wsw22721 0.0 1017359
11:00+20nw33450 0.0 10171053
14:00+25n35270 0.0 10151727
17:00+28nnw35171 0.0 10132506
20:00+21wsw46262 0.0 1013105
8 may, sat
sat823:00+16wnw36350 0.0 1014103
02:00+18nnw817210 0.0 1014564
05:00+14nnw715270 0.0 1015435
08:00+16nnw714270 0.0 1016494
11:00+25nnw811110 0.0 1015962
14:00+30nnw8990 0.0 10131555
17:00+31nnw7990 0.0 10111752
20:00+25nw410165 0.0 1010262
9 may, sun
sun923:00+19w36287 0.0 1011135
02:00+20nw613285 0.0 1011518
05:00+17nnw612345 0.0 1011499
08:00+18nnw69345 0.0 1012590
11:00+25nnw672179 0.0 10111165
14:00+30nw661493 0.0 10082035
17:00+31nnw671029 0.0 10062646
20:00+24w35185 0.0 1006123
10 may, mon
mon1023:00+18w48260 0.0 1007160
02:00+18n411280 0.0 1008284
05:00+16nnw513340 0.0 1009355
08:00+18nnw712310 0.0 1010501
11:00+26nnw89170 0.0 10101224
14:00+31nnw88100 0.0 10082051
17:00+32nnw7880 0.0 10072065
20:00+27nnw512110 0.0 1007359
11 may, tue
tue1123:00+19wnw34200 0.0 100971
02:00+18nnw411245 0.0 1010221
05:00+15nnw49292 0.0 1011194
08:00+18n46235 0.0 1012308
11:00+27n34133 0.0 1012916
14:00+32nne2380 0.0 10101889
17:00+34nne2370 0.0 10092353
20:00+26sw611160 0.0 1010298